EYVIUMKK

Guest
Details From EYVI - VILNIUS INTL
To UMKK - KHRABROVO
Flight Number -
Tags generated
Created
Modified
Stats Distance 164 nm / 303 km
Max Altitude 18,300 ft / 5,578 m
Waypoints 3
Social Downloads 0
Likes 0
Share VATSIM

Download

Looking for another format? Having issues loading an existing format? Contact us
Advertisement - Login to hide

Notes

Basic altitude profile: - Ascent Rate: 2500ft/min - Ascent Speed: 250kts - Cruise Altitude: 35000ft - Cruise Speed: 420kts - Descent Rate: 1500ft/min - Descent Speed: 250kts Options: - Use NATs: yes - Use PACOTS: yes - Use low airways: yes - Use high airways: yes

Route

EYVI VAKAL UMKK

ID Type Via Altitude Latitude Longitude Leg Dist Tot Dist Heading (true) Name
O EYVI APT - 0 ft / 0 m 54.63417˚ 25.28580˚ - 0 nm - VILNIUS INTL
VAKAL FIX - 18,300 ft / 5,578 m 54.86972˚ 23.20806˚ 73 nm 73 nm 282° / 280° -
O UMKK APT - 0 ft / 0 m 54.89005˚ 20.59264˚ 90 nm 163 nm 272° / 270° KHRABROVO

Altitude Profile

Advertisement - Login to hide

Weather


0- 5 10 15 20 25 30 35+ Temperature / ° C

Clouds and Precipitation
Forecast for 2017-09-21 18:00 UTC. Updated 41 minutes ago

Ground ~20,000 ft ~40,000 ft Winds

EYVI

Details ICAO EYVI (VNO)
Name VILNIUS INTL
Region Lithuania
Timezone Europe/Vilnius (UTC+3.0)
Stats Elevation 646 ft / 197 m (AMSL)
Location 54.634166° 25.285796°
Runways 1
Magnetic Variation 7.440° E

METAR

EYVI 211350Z 03007KT 9999 OVC008 12/11 Q1014 NOSIG

Decode

TAF

TAF TAF EYVI 211104Z 2112/2212 03012KT 9000 BKN005 BKN018CB TEMPO 2112/2115 09024KT 3000 TSRA BECMG 2116/2118 VRB02KT 4500 BR BKN003 TEMPO 2118/2124 0800 FG TEMPO 2200/2204 1500 TSRA BKN012CB BECMG 2205/2207 07012KT 9000 BKN015

Decode

Departure Runways

ID Width Length Bearing (true) Bearing (mag) Surface Threshold Offset Overrun Length
02 164 ft / 50 m 8,210 ft / 2,502 m 21.89° 14.45° Asphalt 0 ft / 0 m 151 ft / 46 m
20 164 ft / 50 m 8,210 ft / 2,502 m 201.91° 194.47° Asphalt 0 ft / 0 m 0 ft / 0 m

UMKK

Details ICAO UMKK (KGD)
Name KHRABROVO
Region Belarus and Russia (Kaliningrad Oblast)
Timezone Europe/Kaliningrad (UTC+2.0)
Stats Elevation 42 ft / 13 m (AMSL)
Location 54.890049° 20.592635°
Runways 1
Magnetic Variation 6.135° E

METAR

UMKK 211400Z 02004MPS 360V060 9999 -RA BKN009 OVC018 14/13 Q1016 R06/29//55 NOSIG RMK QFE761/1015

Decode

TAF

TAF UMKK 211100Z 2112/2212 02005G10MPS 5000 BR BKN007 TEMPO 2112/2212 2100 -SHRA BR BKN003 BKN015CB BECMG 2204/2206 VRB01MPS

Decode

Destination Runways

ID Width Length Bearing (true) Bearing (mag) Surface Threshold Offset Overrun Length
06 148 ft / 45 m 8,180 ft / 2,493 m 65.93° 59.79° Concrete 0 ft / 0 m 0 ft / 0 m
24 148 ft / 45 m 8,180 ft / 2,493 m 245.96° 239.82° Concrete 0 ft / 0 m 0 ft / 0 m

Approach Navaids

Runway Type Ident Frequency Range Bearing (true) Bearing (mag) Slope Elevation
24 Localiser IKR 109.50 MHz 18 nm / 33 km 245.00° 238.86° - 42 ft / 13 m (AMSL)
24 Glidescope IKR 109.50 MHz 10 nm / 19 km 245.95° 239.81° 2.70° 42 ft / 13 m (AMSL)